| time (UTC) | temp F | wind direction | speed knots | gust knots | rain 1hr in | rain 24hr in | rain mn in | humidity % | barometer mb |
| 20260504012503 | 51 | 0 | 0.0 | 0.0 | 0.00 | 0.00 | 0.00 | 91 | 1017.5 |
| 20260504012217 | 51 | 0 | 0.0 | 0.0 | 0.00 | 0.00 | 0.00 | 91 | 1017.5 |
| 20260504011503 | 51 | 0 | 0.0 | 0.0 | 0.00 | 0.00 | 0.00 | 91 | 1017.5 |
| 20260504011003 | 51 | 0 | 0.0 | 0.0 | 0.00 | 0.00 | 0.00 | 91 | 1017.6 |
| 20260504010503 | 51 | 0 | 0.0 | 0.0 | 0.00 | 0.00 | 0.00 | 91 | 1017.7 |
| 20260504010004 | 51 | 221 | 0.9 | 1.7 | 0.00 | 0.00 | 0.00 | 91 | 1017.5 |
| 20260504005503 | 51 | 220 | 0.9 | 1.7 | 0.00 | 0.00 | 0.00 | 91 | 1017.6 |
| 20260504005004 | 51 | 217 | 0.0 | 0.9 | 0.00 | 0.00 | 0.00 | 91 | 1017.8 |
| 20260504004503 | 51 | 0 | 0.0 | 0.0 | 0.00 | 0.00 | 0.00 | 91 | 1017.7 |
| 20260504004003 | 51 | 217 | 0.0 | 0.9 | 0.00 | 0.00 | 0.00 | 92 | 1017.6 |
| 20260504003503 | 51 | 212 | 0.9 | 1.7 | 0.00 | 0.00 | 0.00 | 92 | 1017.9 |
| 20260504003003 | 51 | 213 | 0.9 | 1.7 | 0.00 | 0.00 | 0.00 | 91 | 1017.8 |
| 20260504002503 | 51 | 211 | 0.0 | 0.9 | 0.00 | 0.00 | 0.00 | 91 | 1017.9 |
| 20260504002003 | 52 | 197 | 0.0 | 0.9 | 0.00 | 0.00 | 0.00 | 92 | 1017.8 |
| 20260504001503 | 51 | 187 | 0.9 | 1.7 | 0.00 | 0.00 | 0.00 | 92 | 1017.8 |
| 20260504001003 | 51 | 189 | 0.9 | 1.7 | 0.00 | 0.00 | 0.00 | 91 | 1018.0 |
| 20260504000503 | 52 | 194 | 0.0 | 1.7 | 0.00 | 0.00 | 0.00 | 91 | 1017.8 |
| 20260504000219 | 52 | 196 | 0.0 | 0.9 | 0.00 | 0.00 | 0.00 | 91 | 1018.1 |
| 20260503235718 | 52 | 200 | 0.0 | 0.9 | 0.00 | 0.00 | 0.00 | 91 | 1018.2 |
| 20260503235003 | 52 | 201 | 0.0 | 0.9 | 0.00 | 0.00 | 0.00 | 91 | 1018.2 |
| 20260503234717 | 52 | 197 | 0.0 | 0.9 | 0.00 | 0.00 | 0.00 | 90 | 1018.3 |
| 20260503234003 | 53 | 213 | 0.0 | 0.9 | 0.00 | 0.00 | 0.00 | 89 | 1018.2 |
| 20260503233503 | 54 | 254 | 0.9 | 1.7 | 0.00 | 0.00 | 0.00 | 89 | 1018.2 |
| 20260503233003 | 54 | 256 | 0.9 | 1.7 | 0.00 | 0.00 | 0.00 | 89 | 1018.2 |
| 20260503232503 | 54 | 263 | 0.0 | 1.7 | 0.00 | 0.00 | 0.00 | 89 | 1018.4 |
| 20260503232003 | 54 | 0 | 0.0 | 0.0 | 0.00 | 0.00 | 0.00 | 89 | 1018.4 |
| 20260503231503 | 55 | 0 | 0.0 | 0.0 | 0.00 | 0.00 | 0.00 | 89 | 1018.5 |
| 20260503231003 | 55 | 232 | 0.0 | 0.9 | 0.00 | 0.00 | 0.00 | 88 | 1018.4 |
| 20260503230717 | 55 | 249 | 0.0 | 0.9 | 0.00 | 0.00 | 0.00 | 88 | 1018.3 |
| 20260503230003 | 55 | 243 | 0.0 | 0.9 | 0.00 | 0.00 | 0.00 | 89 | 1018.4 |
| 20260503225503 | 55 | 171 | 0.0 | 1.7 | 0.00 | 0.00 | 0.00 | 88 | 1018.5 |
| 20260503225003 | 55 | 203 | 0.9 | 1.7 | 0.00 | 0.00 | 0.00 | 88 | 1018.3 |
| 20260503224503 | 55 | 250 | 0.9 | 2.6 | 0.00 | 0.00 | 0.00 | 88 | 1018.4 |
| 20260503224003 | 55 | 262 | 1.7 | 5.2 | 0.00 | 0.00 | 0.00 | 88 | 1018.2 |
| 20260503223503 | 55 | 273 | 3.5 | 6.1 | 0.00 | 0.00 | 0.00 | 88 | 1018.4 |
| 20260503223003 | 56 | 277 | 3.5 | 6.1 | 0.00 | 0.00 | 0.00 | 87 | 1018.4 |
| 20260503222503 | 56 | 279 | 3.5 | 6.1 | 0.00 | 0.00 | 0.00 | 87 | 1018.3 |
| 20260503222218 | 56 | 281 | 2.6 | 6.1 | 0.00 | 0.00 | 0.00 | 86 | 1018.2 |
| 20260503221503 | 56 | 272 | 2.6 | 5.2 | 0.00 | 0.00 | 0.00 | 86 | 1018.2 |
| 20260503221003 | 56 | 279 | 2.6 | 6.1 | 0.00 | 0.00 | 0.00 | 86 | 1018.3 |
| 20260503220503 | 56 | 290 | 1.7 | 6.1 | 0.00 | 0.00 | 0.00 | 86 | 1018.2 |
| 20260503220003 | 57 | 279 | 1.7 | 5.2 | 0.00 | 0.00 | 0.00 | 85 | 1018.3 |
| 20260503215503 | 57 | 282 | 2.6 | 6.1 | 0.00 | 0.00 | 0.00 | 85 | 1018.2 |
| 20260503215003 | 57 | 286 | 3.5 | 7.0 | 0.00 | 0.00 | 0.00 | 85 | 1018.3 |
| 20260503214503 | 57 | 278 | 2.6 | 7.0 | 0.00 | 0.00 | 0.00 | 84 | 1018.3 |
| 20260503214003 | 57 | 269 | 2.6 | 5.2 | 0.00 | 0.00 | 0.00 | 84 | 1018.3 |
| 20260503213717 | 57 | 267 | 1.7 | 5.2 | 0.00 | 0.00 | 0.00 | 83 | 1018.3 |
| 20260503213003 | 57 | 275 | 1.7 | 3.5 | 0.00 | 0.00 | 0.00 | 82 | 1018.4 |
| 20260503212503 | 57 | 283 | 0.9 | 2.6 | 0.00 | 0.00 | 0.00 | 82 | 1018.3 |
| 20260503212003 | 58 | 291 | 0.9 | 2.6 | 0.00 | 0.00 | 0.00 | 81 | 1018.3 |
| 20260503211716 | 58 | 312 | 0.9 | 2.6 | 0.00 | 0.00 | 0.00 | 80 | 1018.2 |
| 20260503211003 | 58 | 293 | 0.9 | 2.6 | 0.00 | 0.00 | 0.00 | 80 | 1018.1 |
| 20260503210503 | 58 | 281 | 0.9 | 2.6 | 0.00 | 0.00 | 0.00 | 80 | 1018.1 |
| 20260503210003 | 58 | 283 | 0.9 | 2.6 | 0.00 | 0.00 | 0.00 | 79 | 1018.2 |
| 20260503205716 | 58 | 265 | 0.9 | 1.7 | 0.00 | 0.00 | 0.00 | 79 | 1018.1 |
| 20260503205003 | 58 | 287 | 1.7 | 3.5 | 0.00 | 0.00 | 0.00 | 79 | 1018.1 |
| 20260503204503 | 58 | 287 | 1.7 | 3.5 | 0.00 | 0.00 | 0.00 | 78 | 1018.1 |
| 20260503204003 | 58 | 254 | 0.9 | 3.5 | 0.00 | 0.00 | 0.00 | 77 | 1018.0 |
| 20260503203503 | 58 | 266 | 1.7 | 5.2 | 0.00 | 0.00 | 0.00 | 77 | 1017.7 |
| 20260503203003 | 59 | 271 | 2.6 | 5.2 | 0.00 | 0.00 | 0.00 | 77 | 1017.8 |
| 20260503202503 | 59 | 264 | 2.6 | 6.1 | 0.00 | 0.00 | 0.00 | 76 | 1017.8 |
| 20260503202003 | 59 | 272 | 3.5 | 7.0 | 0.00 | 0.00 | 0.00 | 76 | 1017.7 |
| 20260503201503 | 59 | 280 | 4.3 | 7.0 | 0.00 | 0.00 | 0.00 | 76 | 1017.5 |
| 20260503201003 | 59 | 281 | 3.5 | 7.0 | 0.00 | 0.00 | 0.00 | 75 | 1017.4 |
| 20260503200503 | 59 | 288 | 3.5 | 7.8 | 0.00 | 0.00 | 0.00 | 74 | 1017.5 |
| 20260503200217 | 60 | 289 | 4.3 | 7.8 | 0.00 | 0.00 | 0.00 | 73 | 1017.5 |
| 20260503195503 | 60 | 289 | 4.3 | 7.8 | 0.00 | 0.00 | 0.00 | 72 | 1017.5 |
| 20260503195004 | 60 | 270 | 3.5 | 7.8 | 0.00 | 0.00 | 0.00 | 71 | 1017.4 |
| 20260503194503 | 60 | 265 | 3.5 | 7.8 | 0.00 | 0.00 | 0.00 | 71 | 1017.2 |
| 20260503194003 | 60 | 264 | 3.5 | 7.0 | 0.00 | 0.00 | 0.00 | 70 | 1017.1 |
| 20260503193503 | 60 | 263 | 3.5 | 7.0 | 0.00 | 0.00 | 0.00 | 70 | 1017.1 |
| 20260503193003 | 60 | 265 | 3.5 | 7.0 | 0.00 | 0.00 | 0.00 | 70 | 1017.1 |
| 20260503192503 | 61 | 269 | 3.5 | 7.8 | 0.00 | 0.00 | 0.00 | 70 | 1017.0 |
| 20260503192003 | 61 | 268 | 3.5 | 7.8 | 0.00 | 0.00 | 0.00 | 69 | 1017.0 |
| 20260503191503 | 61 | 267 | 3.5 | 7.0 | 0.00 | 0.00 | 0.00 | 69 | 1016.9 |
| 20260503191003 | 61 | 269 | 4.3 | 7.8 | 0.00 | 0.00 | 0.00 | 69 | 1017.0 |
| 20260503190503 | 61 | 268 | 4.3 | 7.8 | 0.00 | 0.00 | 0.00 | 68 | 1016.9 |
| 20260503190003 | 62 | 269 | 4.3 | 9.6 | 0.00 | 0.00 | 0.00 | 67 | 1016.9 |
| 20260503185718 | 62 | 272 | 4.3 | 9.6 | 0.00 | 0.00 | 0.00 | 66 | 1016.9 |
| 20260503185217 | 62 | 277 | 5.2 | 9.6 | 0.00 | 0.00 | 0.00 | 65 | 1016.9 |
| 20260503184503 | 63 | 260 | 5.2 | 9.6 | 0.00 | 0.00 | 0.00 | 64 | 1016.7 |
| 20260503184216 | 64 | 257 | 4.3 | 12.2 | 0.00 | 0.00 | 0.00 | 63 | 1016.6 |
| 20260503183503 | 64 | 271 | 5.2 | 12.2 | 0.00 | 0.00 | 0.00 | 62 | 1016.7 |
| 20260503183003 | 64 | 274 | 5.2 | 11.3 | 0.00 | 0.00 | 0.00 | 62 | 1016.6 |
| 20260503182718 | 64 | 278 | 5.2 | 11.3 | 0.00 | 0.00 | 0.00 | 61 | 1016.6 |
| 20260503182216 | 64 | 274 | 6.1 | 11.3 | 0.00 | 0.00 | 0.00 | 61 | 1016.5 |
| 20260503181504 | 65 | 268 | 6.1 | 13.0 | 0.00 | 0.00 | 0.00 | 60 | 1016.5 |
| 20260503181003 | 65 | 266 | 7.0 | 13.0 | 0.00 | 0.00 | 0.00 | 59 | 1016.6 |
| 20260503180503 | 65 | 262 | 6.1 | 13.0 | 0.00 | 0.00 | 0.00 | 59 | 1016.5 |
| 20260503180003 | 66 | 264 | 5.2 | 8.7 | 0.00 | 0.00 | 0.00 | 59 | 1016.5 |
| 20260503175503 | 66 | 268 | 6.1 | 9.6 | 0.00 | 0.00 | 0.00 | 59 | 1016.5 |
| 20260503175003 | 66 | 272 | 7.0 | 12.2 | 0.00 | 0.00 | 0.00 | 60 | 1016.5 |
| 20260503174503 | 66 | 277 | 6.1 | 12.2 | 0.00 | 0.00 | 0.00 | 59 | 1016.3 |
| 20260503174003 | 67 | 268 | 6.1 | 11.3 | 0.00 | 0.00 | 0.00 | 58 | 1016.3 |
| 20260503173503 | 66 | 270 | 7.0 | 12.2 | 0.00 | 0.00 | 0.00 | 58 | 1016.4 |
| 20260503173003 | 66 | 276 | 6.1 | 12.2 | 0.00 | 0.00 | 0.00 | 58 | 1016.5 |
| 20260503172504 | 67 | 273 | 6.1 | 11.3 | 0.00 | 0.00 | 0.00 | 57 | 1016.5 |
| 20260503172003 | 67 | 283 | 7.0 | 12.2 | 0.00 | 0.00 | 0.00 | 55 | 1016.5 |
| 20260503171503 | 67 | 291 | 7.8 | 13.9 | 0.00 | 0.00 | 0.00 | 56 | 1016.4 |
| 20260503171003 | 67 | 285 | 7.8 | 13.9 | 0.00 | 0.00 | 0.00 | 56 | 1016.5 |
| 20260503170503 | 67 | 281 | 7.8 | 13.0 | 0.00 | 0.00 | 0.00 | 56 | 1016.5 |
| 20260503151003 | 70 | 289 | 6.1 | 13.0 | 0.00 | 0.00 | 0.00 | 52 | 1016.7 |
| 20260503150503 | 70 | 290 | 7.0 | 16.5 | 0.00 | 0.00 | 0.00 | 51 | 1016.6 |
| 20260503131003 | 68 | 278 | 6.1 | 12.2 | 0.00 | 0.00 | 0.00 | 57 | 1017.4 |
| 20260503130503 | 67 | 286 | 6.1 | 12.2 | 0.00 | 0.00 | 0.00 | 59 | 1017.5 |
| 20260503110503 | 67 | 255 | 3.5 | 8.7 | 0.00 | 0.00 | 0.00 | 57 | 1018.2 |
| 20260503090503 | 64 | 181 | 0.9 | 1.7 | 0.00 | 0.00 | 0.00 | 73 | 1018.4 |
| 20260503090217 | 64 | 247 | 0.0 | 1.7 | 0.00 | 0.00 | 0.00 | 74 | 1018.3 |
| 20260503081503 | 61 | 277 | 1.7 | 3.5 | 0.00 | 0.00 | 0.00 | 79 | 1018.4 |
| 20260503081003 | 61 | 274 | 2.6 | 5.2 | 0.00 | 0.00 | 0.00 | 80 | 1018.6 |
| 20260503080718 | 60 | 265 | 2.6 | 5.2 | 0.00 | 0.00 | 0.00 | 81 | 1018.7 |
| 20260503080217 | 61 | 247 | 2.6 | 5.2 | 0.00 | 0.00 | 0.00 | 81 | 1018.5 |
| 20260503072503 | 60 | 212 | 0.0 | 1.7 | 0.00 | 0.00 | 0.00 | 82 | 1018.2 |
| 20260503072003 | 59 | 254 | 0.9 | 2.6 | 0.00 | 0.00 | 0.00 | 84 | 1018.3 |
| 20260503071503 | 59 | 238 | 1.7 | 2.6 | 0.00 | 0.00 | 0.00 | 85 | 1018.4 |
| 20260503071003 | 58 | 224 | 0.9 | 2.6 | 0.00 | 0.00 | 0.00 | 86 | 1018.4 |
| 20260503070717 | 58 | 231 | 0.9 | 2.6 | 0.00 | 0.00 | 0.00 | 86 | 1018.4 |
| 20260503055003 | 56 | 180 | 0.0 | 0.9 | 0.00 | 0.00 | 0.00 | 95 | 1018.0 |
| 20260503054503 | 56 | 174 | 0.0 | 0.9 | 0.00 | 0.00 | 0.00 | 95 | 1018.0 |
| 20260503054003 | 57 | 233 | 0.0 | 0.9 | 0.00 | 0.00 | 0.00 | 95 | 1017.9 |
| 20260503053503 | 56 | 247 | 0.0 | 1.7 | 0.00 | 0.00 | 0.00 | 96 | 1017.9 |
| 20260503053218 | 56 | 256 | 0.0 | 1.7 | 0.00 | 0.00 | 0.00 | 95 | 1017.7 |
| 20260503052717 | 57 | 262 | 0.9 | 1.7 | 0.00 | 0.00 | 0.00 | 95 | 1017.8 |
| 20260503052003 | 56 | 255 | 0.9 | 1.7 | 0.00 | 0.00 | 0.00 | 95 | 1018.0 |
| 20260503051503 | 57 | 273 | 1.7 | 2.6 | 0.00 | 0.00 | 0.00 | 95 | 1018.0 |
| 20260503051217 | 57 | 284 | 1.7 | 5.2 | 0.00 | 0.00 | 0.00 | 95 | 1018.0 |
| 20260503050717 | 56 | 283 | 2.6 | 5.2 | 0.00 | 0.00 | 0.00 | 95 | 1017.9 |
| 20260503050003 | 57 | 282 | 2.6 | 5.2 | 0.00 | 0.00 | 0.00 | 95 | 1018.0 |
| 20260503045503 | 57 | 282 | 2.6 | 5.2 | 0.00 | 0.00 | 0.00 | 95 | 1018.0 |
| 20260503045003 | 57 | 278 | 2.6 | 5.2 | 0.00 | 0.00 | 0.00 | 95 | 1018.1 |
| 20260503044716 | 57 | 277 | 2.6 | 5.2 | 0.00 | 0.00 | 0.00 | 95 | 1018.0 |
| 20260503044003 | 57 | 280 | 2.6 | 5.2 | 0.00 | 0.00 | 0.00 | 95 | 1018.2 |
| 20260503043503 | 57 | 277 | 2.6 | 5.2 | 0.00 | 0.00 | 0.00 | 95 | 1018.0 |
| 20260503043003 | 57 | 285 | 2.6 | 3.5 | 0.00 | 0.00 | 0.00 | 95 | 1018.0 |
| 20260503042503 | 57 | 289 | 2.6 | 3.5 | 0.00 | 0.00 | 0.00 | 95 | 1018.0 |
| 20260503042003 | 57 | 281 | 1.7 | 3.5 | 0.00 | 0.00 | 0.00 | 95 | 1018.0 |
| 20260503041503 | 57 | 269 | 0.9 | 2.6 | 0.00 | 0.00 | 0.00 | 95 | 1018.1 |
| 20260503041003 | 57 | 274 | 0.9 | 3.5 | 0.00 | 0.00 | 0.00 | 95 | 1018.0 |
| 20260503040503 | 57 | 278 | 1.7 | 3.5 | 0.00 | 0.00 | 0.00 | 95 | 1018.0 |
| 20260503040003 | 57 | 276 | 0.9 | 2.6 | 0.00 | 0.00 | 0.00 | 95 | 1018.1 |
| 20260503035503 | 57 | 266 | 0.9 | 2.6 | 0.00 | 0.00 | 0.00 | 95 | 1018.0 |
| 20260503035003 | 57 | 265 | 1.7 | 2.6 | 0.00 | 0.00 | 0.00 | 95 | 1018.0 |
| 20260503034503 | 57 | 279 | 1.7 | 3.5 | 0.00 | 0.00 | 0.00 | 95 | 1017.8 |
| 20260503034003 | 57 | 289 | 1.7 | 3.5 | 0.00 | 0.00 | 0.00 | 94 | 1018.0 |
| 20260503033503 | 57 | 287 | 1.7 | 3.5 | 0.00 | 0.00 | 0.00 | 94 | 1018.0 |
| 20260503033003 | 57 | 273 | 1.7 | 2.6 | 0.00 | 0.00 | 0.00 | 94 | 1018.1 |
| 20260503032503 | 57 | 271 | 1.7 | 2.6 | 0.00 | 0.00 | 0.00 | 94 | 1017.9 |
| 20260503032003 | 58 | 270 | 0.9 | 2.6 | 0.00 | 0.00 | 0.00 | 94 | 1017.7 |
| 20260503031503 | 58 | 258 | 0.9 | 2.6 | 0.00 | 0.00 | 0.00 | 94 | 1018.0 |
| 20260503031003 | 58 | 252 | 0.9 | 2.6 | 0.00 | 0.00 | 0.00 | 94 | 1018.0 |
| 20260503030503 | 58 | 250 | 0.0 | 1.7 | 0.00 | 0.00 | 0.00 | 94 | 1018.1 |
| 20260503030004 | 58 | 251 | 0.0 | 1.7 | 0.00 | 0.00 | 0.00 | 94 | 1018.0 |
| 20260503025503 | 58 | 249 | 0.0 | 1.7 | 0.00 | 0.00 | 0.00 | 94 | 1018.3 |
| 20260503025003 | 58 | 201 | 0.9 | 1.7 | 0.00 | 0.00 | 0.00 | 94 | 1018.0 |
| 20260503024503 | 58 | 193 | 0.0 | 1.7 | 0.00 | 0.00 | 0.00 | 94 | 1018.1 |
| 20260503024003 | 58 | 185 | 0.0 | 1.7 | 0.00 | 0.00 | 0.00 | 94 | 1018.3 |
| 20260503023503 | 58 | 360 | 0.0 | 1.7 | 0.00 | 0.00 | 0.00 | 94 | 1018.3 |
| 20260503023003 | 58 | 282 | 0.0 | 1.7 | 0.00 | 0.00 | 0.00 | 94 | 1018.3 |
| 20260503022503 | 58 | 259 | 0.0 | 1.7 | 0.00 | 0.00 | 0.00 | 94 | 1018.4 |
| 20260503022003 | 58 | 258 | 0.0 | 1.7 | 0.00 | 0.00 | 0.00 | 94 | 1018.4 |
| 20260503021503 | 58 | 263 | 0.0 | 1.7 | 0.00 | 0.00 | 0.00 | 94 | 1018.5 |
| 20260503021003 | 58 | 235 | 0.0 | 0.9 | 0.00 | 0.00 | 0.00 | 94 | 1018.4 |
| 20260503020503 | 58 | 242 | 0.0 | 0.9 | 0.00 | 0.00 | 0.00 | 94 | 1018.3 |
| 20260503020003 | 58 | 249 | 0.9 | 2.6 | 0.00 | 0.00 | 0.00 | 94 | 1018.3 |
| 20260503015503 | 58 | 252 | 0.9 | 2.6 | 0.00 | 0.00 | 0.00 | 94 | 1018.5 |
| 20260503015003 | 58 | 272 | 0.9 | 2.6 | 0.00 | 0.00 | 0.00 | 94 | 1018.5 |
| 20260503014503 | 58 | 270 | 0.9 | 2.6 | 0.00 | 0.00 | 0.00 | 94 | 1018.5 |
| 20260503014003 | 58 | 272 | 1.7 | 2.6 | 0.00 | 0.00 | 0.00 | 94 | 1018.8 |
| 20260503013503 | 58 | 276 | 1.7 | 2.6 | 0.00 | 0.00 | 0.00 | 93 | 1018.6 |
| 20260503013003 | 58 | 282 | 1.7 | 3.5 | 0.00 | 0.00 | 0.00 | 93 | 1018.7 |